{"data":{"norad_id":63659,"intl_designator":"2025-083AB","name":"STARLINK-33771","alt_names":[],"object_type":"PAYLOAD","status":"ACTIVE","operator":null,"country":"US","launch_date":"2025-04-25","launch_site_code":"AFETR","launch_vehicle":null,"mission":null,"orbit_class":"UNKNOWN","rcs_meters":null,"size_class":null,"mass_kg":null,"dimensions":null,"purposes":["comms"],"wikipedia_slug":null,"has_3d_model":false,"image_url":null,"decayed_at":null,"tle_current":{"epoch":"2026-09-20T05:57:48.856032Z","epoch_age_seconds":174572,"freshness":"STALE","line1":"1 63659U 25083AB  26263.24848213  .00006410  00000+0  24222-3 0  9993","line2":"2 63659  42.9993 349.8383 0000671 186.6512 173.4331 15.27582386 79812","mean_motion":15.27582386,"eccentricity":6.71e-5,"inclination_deg":42.9993,"raan_deg":349.8383,"arg_perigee_deg":186.6512,"mean_anomaly_deg":173.4331,"bstar":0.00024222,"rev_number":7981,"period_min":94.266601474154,"perigee_km":482.58156639895,"apogee_km":483.50233661424,"semimajor_km":6861.1789515066,"source":"CELESTRAK","updated_at":"2026-09-21T09:00:35.056175Z"}}}